| time (UTC) | temp F | wind direction | speed MPH | gust MPH | rain 1hr in | rain 24hr in | rain mn in | humidity % | barometer mb |
| 20260503230052 | 58 | 303 | 1.0 | 9.0 | 0.00 | 0.00 | 0.00 | 39 | 1011.3 |
| 20260503224600 | 58 | 0 | 3.0 | 11.0 | 0.00 | 0.00 | 0.00 | 37 | 1011.3 |
| 20260503223050 | 59 | 296 | 3.0 | 10.0 | 0.00 | 0.00 | 0.00 | 37 | 1011.2 |
| 20260503221601 | 59 | 298 | 5.0 | 12.0 | 0.00 | 0.00 | 0.00 | 36 | 1011.1 |
| 20260503220052 | 59 | 317 | 6.0 | 13.0 | 0.00 | 0.00 | 0.00 | 35 | 1010.9 |
| 20260503214551 | 58 | 285 | 3.0 | 13.0 | 0.00 | 0.00 | 0.00 | 36 | 1011.2 |
| 20260503213050 | 59 | 297 | 3.0 | 11.0 | 0.00 | 0.00 | 0.00 | 36 | 1011.0 |
| 20260503211556 | 59 | 319 | 4.0 | 12.0 | 0.00 | 0.00 | 0.00 | 33 | 1011.0 |
| 20260503210050 | 59 | 338 | 8.0 | 18.0 | 0.00 | 0.00 | 0.00 | 35 | 1011.1 |
| 20260503204609 | 59 | 331 | 6.0 | 16.0 | 0.00 | 0.00 | 0.00 | 36 | 1011.2 |
| 20260503203049 | 59 | 327 | 6.0 | 13.0 | 0.00 | 0.00 | 0.00 | 37 | 1011.1 |
| 20260503201552 | 59 | 284 | 5.0 | 12.0 | 0.00 | 0.00 | 0.00 | 36 | 1011.3 |
| 20260503200054 | 57 | 296 | 3.0 | 12.0 | 0.00 | 0.00 | 0.00 | 38 | 1011.5 |
| 20260503194555 | 57 | 281 | 5.0 | 18.0 | 0.00 | 0.00 | 0.00 | 35 | 1011.5 |
| 20260503193051 | 57 | 242 | 3.0 | 12.0 | 0.00 | 0.00 | 0.00 | 37 | 1011.6 |
| 20260503191608 | 57 | 304 | 7.0 | 18.0 | 0.00 | 0.00 | 0.00 | 35 | 1011.5 |
| 20260503190048 | 56 | 314 | 3.0 | 14.0 | 0.00 | 0.00 | 0.00 | 41 | 1011.6 |
| 20260503184553 | 56 | 321 | 2.0 | 18.0 | 0.00 | 0.00 | 0.00 | 41 | 1011.5 |
| 20260503183055 | 56 | 271 | 2.0 | 13.0 | 0.00 | 0.00 | 0.00 | 39 | 1011.7 |
| 20260503181552 | 55 | 298 | 5.0 | 14.0 | 0.00 | 0.00 | 0.00 | 39 | 1011.9 |
| 20260503180059 | 56 | 260 | 6.0 | 18.0 | 0.00 | 0.00 | 0.00 | 40 | 1012.1 |
| 20260503174555 | 54 | 284 | 7.0 | 15.0 | 0.00 | 0.00 | 0.00 | 43 | 1012.4 |
| 20260503173048 | 54 | 289 | 3.0 | 12.0 | 0.00 | 0.00 | 0.00 | 46 | 1012.3 |
| 20260503171550 | 52 | 291 | 4.0 | 13.0 | 0.00 | 0.00 | 0.00 | 42 | 1012.6 |
| 20260503081553 | 44 | 317 | 1.0 | 8.0 | 0.00 | 0.00 | 0.00 | 62 | 1011.0 |
| 20260503071611 | 42 | 0 | 0.0 | 0.0 | 0.00 | 0.00 | 0.00 | 69 | 1010.9 |
| 20260503054609 | 45 | 0 | 0.0 | 0.0 | 0.00 | 0.00 | 0.00 | 63 | 1011.0 |
| 20260503053055 | 45 | 0 | 0.0 | 1.0 | 0.00 | 0.00 | 0.00 | 62 | 1011.0 |
| 20260503051552 | 45 | 0 | 0.0 | 2.0 | 0.00 | 0.00 | 0.00 | 62 | 1011.3 |
| 20260503050051 | 46 | 0 | 0.0 | 1.0 | 0.00 | 0.00 | 0.00 | 60 | 1011.3 |
| 20260503044548 | 47 | 0 | 0.0 | 3.0 | 0.00 | 0.00 | 0.00 | 58 | 1011.4 |
| 20260503043055 | 47 | 325 | 0.0 | 4.0 | 0.00 | 0.00 | 0.00 | 58 | 1011.5 |
| 20260503041552 | 47 | 0 | 0.0 | 3.0 | 0.00 | 0.00 | 0.00 | 56 | 1011.7 |
| 20260503040055 | 47 | 332 | 1.0 | 3.0 | 0.00 | 0.00 | 0.00 | 56 | 1011.7 |
| 20260503034550 | 48 | 311 | 1.0 | 3.0 | 0.00 | 0.00 | 0.00 | 56 | 1011.8 |
| 20260503033058 | 48 | 0 | 0.0 | 3.0 | 0.00 | 0.00 | 0.00 | 57 | 1011.9 |
| 20260503031553 | 48 | 0 | 0.0 | 3.0 | 0.00 | 0.00 | 0.00 | 56 | 1012.0 |
| 20260503030049 | 48 | 329 | 0.0 | 3.0 | 0.00 | 0.00 | 0.00 | 57 | 1012.1 |
| 20260503024552 | 47 | 0 | 0.0 | 1.0 | 0.00 | 0.00 | 0.00 | 59 | 1011.9 |
| 20260503023054 | 47 | 0 | 0.0 | 0.0 | 0.00 | 0.00 | 0.00 | 59 | 1011.9 |
| 20260503021553 | 47 | 0 | 0.0 | 0.0 | 0.00 | 0.00 | 0.00 | 59 | 1011.8 |
| 20260503020050 | 48 | 0 | 0.0 | 0.0 | 0.00 | 0.00 | 0.00 | 60 | 1011.9 |
| 20260503014600 | 48 | 0 | 0.0 | 0.0 | 0.00 | 0.00 | 0.00 | 56 | 1011.8 |
| 20260503013050 | 49 | 0 | 0.0 | 1.0 | 0.00 | 0.00 | 0.00 | 57 | 1011.9 |
| 20260503011551 | 50 | 0 | 0.0 | 3.0 | 0.00 | 0.00 | 0.00 | 57 | 1011.9 |
| 20260503010054 | 49 | 320 | 1.0 | 5.0 | 0.00 | 0.00 | 0.00 | 56 | 1011.7 |
| 20260503004550 | 49 | 0 | 0.0 | 2.0 | 0.00 | 0.00 | 0.00 | 59 | 1011.4 |
| 20260503003051 | 50 | 0 | 0.0 | 0.0 | 0.00 | 0.00 | 0.00 | 57 | 1011.4 |
| 20260503001608 | 51 | 0 | 0.0 | 1.0 | 0.00 | 0.00 | 0.00 | 52 | 1011.1 |
| 20260503000112 | 52 | 0 | 0.0 | 0.0 | 0.00 | 0.00 | 0.00 | 50 | 1011.0 |
| 20260502234556 | 52 | 0 | 0.0 | 1.0 | 0.00 | 0.00 | 0.00 | 52 | 1010.9 |
| 20260502233056 | 53 | 0 | 0.0 | 0.0 | 0.00 | 0.00 | 0.00 | 49 | 1010.9 |
| 20260502231559 | 54 | 0 | 0.0 | 3.0 | 0.00 | 0.00 | 0.00 | 49 | 1010.7 |